#timestamp,LO_Frequency,Hit 
1500055215.8,286047270.6,N
1500055235.7,286047270.5,N
1500055255.5,286047272.8,N
1500055275.4,286047272.8,N
1500055295.2,286047270.2,N
1500055315.0,286047270.2,N
1500055315.9,286047270.2,N
1500055335.8,286047272.6,N
1500055355.6,286047272.8,N
1500055375.4,286047271.0,N
1500055395.3,286047270.1,N
1500055415.1,286047273.1,N
1500055435.9,286047270.1,N
1500055455.7,286047268.8,N
1500055475.5,286047272.5,N
1500055495.4,286047273.2,N
1500055515.2,286047271.3,N
1500055535.0,286047272.6,N
1500055535.9,286047272.6,N
1500055555.8,286047274.8,N
1500055575.6,286047274.6,N
1500055595.5,286047271.8,N
1500055615.3,286047274.7,N
1500055635.1,286047270.2,N
1500055655.9,286047270.6,N
1500055675.7,286047270.6,N
1500055695.5,286047273.1,N
1500055715.4,286047272.9,N
1500055735.2,286047272.2,N
1500055755.1,286047273.1,N
1500055756.0,286047273.1,N
1500055775.8,286047272.8,N
1500055795.6,286047272.2,N
1500055815.5,286047270.6,N
1500055835.3,286047270.3,N
1500055855.1,286047272.9,N
1500055875.9,286047272.0,N
1500055895.7,286047272.3,N
1500055915.6,286047272.2,N
1500055935.4,286047272.6,N
1500055955.2,286047272.2,N
1500055975.1,286047270.6,N
1500055976.0,286047270.6,N
1500055995.8,286047271.3,N
1500056015.6,286047267.9,N
1500056035.5,286047274.3,N
1500056055.3,286047274.3,N
1500056075.2,286047274.7,N
1500056095.9,286047271.8,N
1500056115.7,286047273.9,N
1500056135.6,286047273.4,N
1500056155.4,286047276.4,N
1500056175.2,286047275.6,N
1500056195.1,286047277.2,N
1500056196.0,286047277.2,N
1500056215.8,286047275.0,N
1500056235.7,286047276.2,N
1500056255.5,286047274.8,N
1500056275.3,286047274.2,N
1500056295.2,286047274.5,N
1500056315.9,286047271.8,N
1500056335.7,286047274.3,N
1500056355.6,286047274.5,N
1500056375.4,286047273.6,N
1500056395.2,286047276.4,N
1500056415.1,286047273.6,N
1500056416.0,286047273.6,N
1500056435.8,286047273.4,N
1500056455.7,286047276.3,N
1500056475.5,286047276.1,N
1500056495.3,286047273.3,N
1500056515.2,286047273.6,N
1500056535.0,286047274.5,N
1500056535.9,286047274.5,N
1500056555.8,286047273.3,N
1500056575.6,286047276.0,N
1500056595.4,286047273.3,N
1500056615.3,286047275.4,N
1500056635.1,286047273.4,N
1500056655.8,286047276.2,N
1500056675.7,286047273.6,N
1500056695.5,286047274.6,N
1500056715.4,286047273.5,N
1500056735.2,286047273.4,N
1500056755.0,286047275.6,N
1500056755.9,286047275.6,N
1500056775.8,286047273.8,N
1500056795.6,286047275.4,N
1500056815.4,286047277.7,N
1500056835.3,286047277.5,N
1500056855.1,286047277.0,N
1500056875.9,286047277.8,N
1500056895.7,286047277.1,N
1500056915.5,286047276.6,N
1500056935.4,286047277.2,N
1500056955.2,286047277.6,N
1500056975.0,286047274.9,N
1500056976.0,286047274.9,N
1500056995.8,286047276.1,N
1500057015.6,286047276.0,N
1500057035.5,286047276.4,N
1500057055.3,286047274.0,N
1500057075.1,286047274.7,N
1500057095.9,286047274.0,N
1500057115.7,286047276.2,N
1500057135.6,286047275.2,N
1500057155.4,286047275.8,N
1500057175.2,286047274.2,N
1500057195.1,286047275.9,N
1500057196.0,286047275.9,N
1500057215.8,286047273.8,N
1500057235.6,286047273.4,N
1500057255.5,286047275.5,N
1500057275.3,286047276.5,N
1500057295.2,286047276.1,N
1500057315.9,286047273.4,N
1500057335.7,286047275.5,N
1500057355.6,286047275.4,N
1500057375.4,286047273.3,N
1500057395.2,286047276.0,N
1500057415.1,286047275.4,N
1500057416.0,286047275.4,N
1500057435.8,286047275.9,N
1500057455.7,286047274.1,N
1500057475.5,286047275.1,N
1500057495.3,286047277.2,N
1500057515.2,286047277.1,N
1500057535.0,286047278.0,N
1500057535.9,286047278.0,N
1500057555.7,286047275.5,N
1500057575.6,286047275.5,N
1500057595.4,286047275.0,N
1500057615.3,286047275.6,N
1500057635.1,286047275.4,N
1500057636.0,286047275.4,N
1500057655.8,286047277.4,N
1500057675.7,286047293.5,N
1500057695.5,286047277.7,N
1500057715.3,286047277.1,N
1500057735.2,286047277.1,N
1500057755.0,286047277.6,N
1500057755.9,286047277.6,N
1500057775.8,286047277.9,N
1500057795.6,286047276.8,N
1500057815.4,286047277.8,N
1500057835.3,286047275.4,N
1500057855.1,286047276.5,N
1500057875.9,286047276.6,N
1500057895.7,286047277.5,N
1500057915.5,286047274.9,N
1500057935.4,286047277.6,N
1500057955.2,286047277.2,N
1500057975.0,286047279.5,N
1500057975.9,286047279.5,N
1500057995.8,286047276.6,N
1500058015.6,286047276.9,N
1500058035.5,286047276.5,N
1500058055.3,286047278.6,N
1500058075.1,286047279.6,N
1500058095.9,286047276.5,N
1500058115.7,286047276.8,N
1500058135.5,286047279.4,N
1500058155.4,286047277.8,N
1500058175.2,286047276.8,N
1500058195.1,286047277.6,N
1500058196.0,286047277.6,N
1500058215.8,286047277.5,N
1500058235.6,286047279.4,N
1500058255.5,286047279.2,N
1500058275.3,286047279.3,N
1500058295.1,286047277.2,N
1500058315.9,286047277.2,N
1500058335.7,286047279.5,N
1500058355.6,286047276.5,N
1500058375.4,286047279.6,N
1500058395.2,286047276.9,N
1500058415.1,286047277.0,N
1500058416.0,286047277.0,N
1500058435.8,286047279.5,N
1500058455.6,286047279.1,N
1500058475.5,286047279.5,N
1500058495.3,286047279.6,N
1500058515.2,286047279.3,N
1500058535.9,286047279.1,N
1500058555.7,286047277.0,N
1500058575.6,286047281.2,N
1500058595.4,286047278.4,N
1500058615.2,286047279.0,N
1500058635.1,286047277.2,N
1500058636.0,286047277.2,N
1500058655.8,286047279.2,N
1500058675.7,286047278.6,N
1500058695.5,286047278.7,N
1500058715.3,286047279.1,N
1500058735.2,286047278.3,N
1500058755.0,286047278.4,N
1500058755.9,286047278.4,N
1500058775.8,286047281.2,N
1500058795.6,286047278.1,N
